Location: Cruquius
(52.3348°N, 4.6319°E)
Time: 07:36:40
(UTC+00:00)

Cosmos 1743 - Pass Details

Date: 12 May 2021
Orbit: 510 x 525 km, 82.6° (Epoch: 15 June)

Event Time Altitude Azimuth Distance (km) Brightness Sun altitude
Rises 20:52:40 0° 358° (N) 2,654 7.2 -10.7°
Reaches altitude 10° 20:55:08 10° 13° (NNE) 1,763 6.0 -11.0°
Maximum altitude 20:58:19 24° 68° (ENE) 1,119 4.2 -11.3°
Enters shadow 21:00:38 14° 114° (ESE) 1,498 4.5 -11.5°
